Location: Biltmore Gardens
(41.6070°N, 83.4666°W)
Time: 13:48:10
(UTC+00:00)

Genesis I - Pass Details

Date: 14 July 2020
Orbit: 510 x 513 km, 64.5° (Epoch: 12 August)

Event Time Altitude Azimuth Distance (km) Brightness Sun altitude
Rises 02:14:56 0° 222° (SW) 2,607 6.8 -11.0°
Reaches altitude 10° 02:17:07 10° 227° (SW) 1,725 5.9 -11.3°
Maximum altitude 02:20:55 55° 306° (NW) 618 4.0 -11.8°
Drops below altitude 10° 02:24:44 10° 25° (NNE) 1,735 6.1 -12.3°
Sets 02:26:57 0° 30° (NNE) 2,624 7.0 -12.6°
